Location: Habighorst
(52.7089°N, 10.2278°E)
Time: 14:55:30
(UTC+00:00)

Cosmos 2297 Rocket - Visible Passes

Search period start: 19 April 2026 00:00
Search period end: 29 April 2026 00:00
Orbit: 840 x 841 km, 71.0° (Epoch: 19 April)

Date Brightness Start Highest point End Pass type
(mag) Time Alt. Az. Time Alt. Az. Time Alt. Az.
19 Apr 4.9 02:59:39 10° ESE 03:02:09 13° E 03:04:38 10° ENE visible
20 Apr 4.9 02:44:31 10° ESE 02:46:42 12° E 02:48:54 10° ENE visible
21 Apr 4.9 02:29:28 10° ESE 02:31:17 12° E 02:33:06 10° ENE visible
22 Apr 5.0 02:14:32 10° ESE 02:15:52 11° E 02:17:12 10° E visible
23 Apr 5.1 01:59:58 10° E 02:00:26 10° E 02:00:54 10° E visible
24 Apr 3.0 03:22:17 10° S 03:27:45 53° ESE 03:33:14 10° NE visible
25 Apr 3.0 03:06:51 10° S 03:12:16 50° ESE 03:17:44 10° NE visible
26 Apr 3.1 02:51:25 10° S 02:56:48 48° ESE 03:02:13 10° NE visible
27 Apr 3.1 02:35:59 10° S 02:41:20 45° ESE 02:46:42 10° NE visible
28 Apr 3.2 02:20:34 10° S 02:25:52 43° ESE 02:31:11 10° NE visible
